EHI
0 0 0 0 0 0 1 2 1 1 1 1 0 0 0 0 0 0 1 2 3 4 4 4 3 2 1 1 2 3 2 1 0 1 1 1 1 0 0 0 0 0 0
0 0 0 0 1 1 2 3 2 2 2 1 0 0 0 0 0 0 0 1 3 4 5 4 3 2 1 1 2 2 1 1 1 1 1 0 0 0 0 0 0 0 0
0 0 0 0 1 2 4 5 4 3 2 1 1 1 1 1 0 0 0 1 2 3 4 5 3 2 1 1 1 1 1 1 2 1 0 0 0 0 0 0 0 0 0
0 0 0 0 1 4 5 5 6 5 2 1 1 2 2 2 1 0 0 0 0 1 3 5 4 3 2 1 0 0 0 1 2 2 1 0 0 0 0 0 0 0 0
0 0 0 0 1 3 4 4 6 6 2 0 1 1 2 2 1 0 0 0 0 0 1 4 5 4 2 1 1 1 1 1 2 2 2 1 1 1 1 0 0 0 0
0 1 1 0 1 2 3 4 5 5 3 1 1 1 1 1 0 0 0 0 0 0 0 2 4 4 2 1 1 1 2 2 3 4 5 4 2 2 2 1 0 0 0
1 1 2 1 1 1 2 3 3 2 2 2 2 2 1 0 0 0 0 0 0 0 0 2 4 4 2 2 2 2 2 2 3 5 8 7 5 4 3 1 1 1 1
2 2 3 2 2 2 2 2 2 1 1 3 3 2 1 1 1 1 1 1 1 1 1 2 4 3 2 2 1 1 1 1 2 4 8 9 8 6 4 2 2 2 1
3 3 3 3 3 3 3 2 3 3 3 3 3 2 1 1 2 2 2 3 3 2 2 2 2 1 1 1 0 0 1 1 2 4 6 8 7 7 5 4 3 2 1
4 4 4 3 3 4 5 4 4 5 6 5 4 4 4 3 3 3 2 3 3 2 1 1 0 0 0 0 0 0 1 2 2 3 4 4 5 5 5 4 4 2 1
5 5 5 4 4 5 6 6 6 6 7 6 5 6 6 5 4 4 3 2 1 1 0 0 0 1 0 0 0 0 0 1 1 1 3 3 3 3 4 4 4 3 3
7 7 8 8 7 5 6 8 8 7 7 7 7 7 7 6 5 4 3 1 0 0 0 0 0 0 0 0 0 0 0 0 0 0 1 2 3 3 3 3 4 3 3
10 11 12 11 8 5 5 6 7 8 8 8 8 8 7 5 3 2 1 1 1 1 1 0 0 0 0 0 1 1 1 0 0 0 0 1 2 3 3 3 3 3 3
12 14 14 12 9 6 5 6 7 8 10 9 7 6 5 3 1 0 0 1 2 2 2 1 1 1 1 1 2 2 2 1 0 0 0 0 1 1 2 2 2 2 2
14 14 14 13 11 9 7 7 8 9 11 11 9 7 4 2 1 0 0 1 2 2 2 2 1 1 1 2 3 4 4 2 0 0 0 0 0 0 1 1 1 1 1
14 13 13 13 13 11 9 8 8 9 10 11 10 9 6 3 2 1 1 1 1 1 1 1 1 1 2 3 4 5 5 3 1 1 0 0 0 0 0 0 0 0 0
14 12 12 13 14 12 11 10 9 9 9 9 10 10 8 5 4 4 4 3 1 0 0 1 1 2 3 3 4 5 5 4 3 2 1 0 0 0 0 0 0 0 0
19 15 13 14 14 13 12 12 11 9 9 9 10 10 7 8 9 8 5 3 1 1 1 2 3 4 4 4 4 4 4 4 4 3 2 1 0 0 0 0 0 0 0
24 20 17 16 15 14 13 12 12 11 9 9 10 9 7 9 12 9 5 3 2 3 4 4 4 6 6 5 5 4 5 6 5 3 2 1 0 0 0 0 0 0 0
26 24 21 18 16 14 12 10 10 10 9 9 10 9 9 10 10 7 5 5 6 7 9 8 6 6 8 7 5 4 5 8 7 5 4 3 1 1 1 0 0 0 0
27 26 24 19 14 11 9 7 7 8 9 9 10 11 11 9 6 4 4 6 9 11 13 13 9 8 9 8 6 4 6 8 8 8 8 7 5 4 3 1 0 0 0
30 28 24 18 13 10 6 4 5 8 9 9 11 12 10 6 4 4 3 3 6 8 11 13 13 12 12 10 7 6 7 9 9 11 12 11 9 8 5 2 1 0 0
29 27 22 17 14 10 5 3 4 7 9 10 12 13 10 7 8 9 7 5 5 6 7 10 13 14 14 13 10 8 8 8 10 13 14 13 11 10 6 3 1 0 0
24 23 20 18 16 11 5 2 2 5 9 12 13 14 12 11 11 12 12 12 11 9 6 6 9 10 10 11 11 10 8 7 8 12 14 12 10 9 6 4 2 0 0
20 20 19 19 18 14 7 2 2 6 10 13 15 14 13 12 11 10 12 15 15 13 9 6 5 5 4 5 7 7 6 5 5 8 10 10 7 6 6 5 3 1 0
19 18 18 19 20 17 10 4 3 8 12 14 16 15 11 9 8 8 10 13 15 15 12 8 4 2 1 1 2 3 4 4 3 5 9 9 5 4 5 5 3 1 0
Wind_Speed
2 3 3 2 2 3 4 3 3 3 3 3 2 3 1 0 0 1 4 6 4 3 3 3 3 3 3 4 5 5 5 6 6 6 6 6 6 6 6 7 7 7 6
2 1 3 2 2 2 2 2 3 3 2 2 2 2 1 1 1 1 2 5 5 4 3 3 3 3 3 4 4 5 5 5 5 5 6 6 6 6 6 6 6 6 6
2 1 2 2 2 2 3 2 3 3 3 3 2 2 2 1 2 1 1 1 4 6 4 3 2 3 3 3 4 4 5 5 6 6 6 6 5 6 6 6 6 6 6
1 1 1 2 2 2 2 2 2 2 2 1 2 1 1 2 2 2 2 1 1 2 5 4 3 2 2 2 2 3 4 5 6 6 6 6 6 6 6 6 5 5 5
1 1 0 2 2 2 2 2 2 1 1 1 2 3 2 2 2 2 2 2 2 1 1 5 5 4 2 1 1 2 3 4 5 6 6 7 7 7 7 7 6 5 5
1 1 1 1 1 1 1 1 2 1 1 2 1 1 1 2 2 2 2 2 2 2 1 1 3 5 5 2 2 2 3 4 4 5 6 7 7 7 7 7 7 7 7
1 1 1 1 1 1 1 1 1 2 2 1 2 2 3 3 2 2 2 1 2 1 1 1 1 1 3 6 2 1 2 3 3 4 5 7 7 7 7 8 8 8 7
2 2 1 1 1 1 1 1 2 2 1 2 2 2 2 3 3 2 2 2 1 1 1 1 1 0 1 1 4 2 2 3 4 4 4 5 6 7 7 8 8 8 8
2 1 1 1 1 1 1 2 2 3 2 2 2 2 2 1 1 3 2 1 1 1 1 1 1 1 1 1 1 2 1 2 3 4 4 5 5 7 7 7 8 8 8
2 2 2 1 2 1 1 2 1 2 3 2 2 1 2 2 2 1 3 3 2 2 1 1 1 2 1 1 1 2 1 1 3 3 4 4 4 5 7 8 8 8 8
2 2 2 2 2 1 1 2 1 2 2 2 2 1 2 2 3 3 1 1 2 2 2 2 1 1 2 2 1 1 2 1 2 3 3 2 3 4 5 6 7 7 7
2 2 2 2 2 1 1 2 2 2 2 2 3 2 2 2 2 2 3 2 2 1 2 1 2 2 2 2 1 3 2 2 1 1 2 2 2 2 3 5 5 6 6
2 2 2 2 2 1 2 2 2 2 2 2 3 2 2 2 2 2 3 2 2 1 2 3 2 2 2 2 1 3 3 2 2 2 2 2 2 2 3 3 4 5 5
2 1 2 2 2 2 2 2 3 3 2 3 3 3 2 2 2 3 3 3 3 2 3 2 2 2 1 1 0 4 2 3 3 3 3 3 3 3 3 4 4 5 5
2 3 3 3 3 2 2 3 2 3 3 3 3 3 3 2 3 3 3 3 4 3 2 2 2 1 1 1 1 2 2 3 4 4 4 4 3 3 4 4 4 4 4
3 3 3 3 3 3 3 3 3 3 3 2 2 2 3 3 2 2 3 3 3 4 3 1 1 0 1 2 2 3 2 4 5 5 5 4 4 4 4 4 4 4 4
4 4 3 3 3 3 3 3 3 3 3 3 3 3 3 3 2 3 3 3 3 3 4 2 1 0 2 4 2 3 4 4 3 7 6 5 5 4 4 4 4 4 4
4 4 3 4 4 4 4 4 4 3 4 4 4 4 4 3 3 3 3 3 3 3 4 4 2 2 3 3 3 4 4 3 3 6 7 6 6 5 5 5 4 4 5
4 4 4 4 4 4 4 4 5 5 5 5 5 4 4 3 4 3 4 4 3 3 3 4 4 2 3 2 3 4 4 3 4 4 8 8 7 7 7 6 6 5 5
5 5 4 4 4 4 5 5 5 5 5 5 5 4 4 4 4 4 4 4 4 4 4 5 4 3 3 2 3 4 3 3 4 3 2 4 6 9 9 8 7 6 6
5 5 5 4 5 4 4 4 5 6 5 5 4 4 4 3 3 4 4 3 4 4 4 4 4 3 3 2 3 3 4 3 3 3 3 4 4 5 7 9 9 8 7
5 4 4 4 4 3 2 2 4 4 5 4 4 4 4 5 4 5 4 4 5 5 5 5 4 4 4 4 3 4 4 4 3 2 4 4 4 4 4 3 5 6 6
5 4 4 4 4 2 3 4 4 5 5 4 4 5 5 2 4 5 5 7 7 7 6 6 6 6 5 4 4 5 4 5 5 3 3 4 3 4 3 2 6 6 6
4 4 4 4 3 3 4 4 4 6 5 5 5 5 5 3 3 4 5 5 6 6 6 7 6 6 6 4 5 6 5 6 6 4 4 5 4 5 3 2 7 7 7
3 3 3 3 3 3 3 3 4 5 4 5 5 5 5 5 2 3 5 5 6 5 5 5 5 5 5 5 5 5 5 5 5 4 3 5 5 4 4 4 4 9 8
3 3 2 2 2 2 3 3 4 4 3 4 4 4 3 3 2 3 5 5 6 5 5 4 5 6 7 7 8 7 6 6 6 5 2 4 5 4 4 3 3 4 5
Wind_Direction
106 107 108 124 129 124 141 141 129 128 142 153 144 132 129 108 134 157 129 145 167 196 208 203 208 210 205 202 205 201 198 195 196 197 196 197 195 192 196 204 209 209 206
94 118 130 131 129 127 105 127 134 138 139 122 133 131 180 162 125 241 144 147 162 182 203 210 209 207 209 208 205 203 205 204 198 199 203 202 201 197 198 199 198 203 208
107 140 117 146 127 132 143 149 144 146 153 155 154 159 174 177 167 189 200 181 161 171 177 185 201 218 218 213 213 207 204 197 196 195 197 198 194 196 199 196 201 207 212
142 188 144 136 148 158 147 146 170 156 148 161 150 173 169 161 175 183 188 182 190 159 158 164 178 193 208 218 217 209 199 196 195 194 196 199 198 198 197 198 200 203 210
144 208 121 97 178 153 149 182 138 167 163 186 178 175 184 182 181 183 176 175 164 185 175 149 163 169 177 204 205 200 205 206 202 202 207 209 208 207 206 205 205 205 209
139 231 144 139 206 151 144 131 146 159 203 210 218 158 183 180 190 178 207 185 177 192 219 170 176 169 174 191 218 221 217 218 216 215 217 215 216 213 212 209 209 210 213
145 211 137 147 225 129 188 191 187 177 204 205 205 190 190 191 188 190 212 220 182 188 180 199 231 231 165 170 180 213 222 226 226 221 224 222 221 219 215 213 216 213 215
191 176 182 213 190 174 196 203 204 234 193 195 249 242 202 180 187 185 190 198 221 216 196 190 155 131 302 160 128 158 244 242 239 230 226 222 219 215 215 212 214 216 216
190 201 202 246 247 246 181 226 220 227 219 202 235 277 282 277 155 160 188 184 210 243 233 192 191 171 242 290 141 147 223 245 245 242 237 230 224 215 212 210 214 216 216
199 200 212 233 258 255 212 240 199 245 243 224 195 239 285 325 291 208 179 162 180 212 242 249 208 180 208 231 153 69 115 238 247 247 243 240 239 223 218 214 217 218 218
208 216 216 229 246 255 251 268 256 264 243 256 248 227 217 222 243 265 250 208 193 199 204 216 230 212 204 221 225 116 144 213 247 247 248 248 254 230 214 213 220 221 217
200 200 212 229 242 258 241 248 249 235 257 275 277 265 247 242 242 246 253 248 234 211 213 218 230 225 223 216 208 110 156 193 230 256 253 261 265 251 218 219 227 229 226
201 183 221 232 247 243 241 241 233 254 242 244 254 263 268 275 286 279 273 273 258 228 211 219 218 228 223 220 186 163 180 196 210 235 249 252 246 249 233 227 235 238 235
229 190 224 232 238 238 241 233 235 226 226 235 244 259 261 257 264 267 275 281 270 240 204 223 221 216 227 228 115 203 184 176 201 218 229 234 236 235 232 233 235 236 241
220 209 226 231 235 233 244 244 237 230 225 232 230 219 244 244 251 261 263 271 279 279 258 194 228 203 231 207 194 231 241 165 194 210 218 225 229 232 233 238 241 235 233
230 223 226 231 230 226 223 231 223 215 218 221 244 266 269 263 264 258 254 256 263 273 280 282 237 242 308 268 192 246 247 177 191 198 206 217 224 233 236 238 238 237 234
222 222 225 222 219 219 217 219 233 209 218 224 232 226 237 267 262 254 251 255 255 260 263 266 270 245 246 269 258 255 247 240 195 187 200 214 222 226 230 232 234 236 237
214 213 217 215 216 213 213 211 220 217 222 228 229 230 234 235 243 261 260 258 259 256 261 264 261 246 236 240 251 260 258 250 248 169 190 208 216 218 222 224 227 231 233
209 211 207 210 216 220 214 209 211 214 220 232 235 232 237 240 247 255 259 260 257 250 253 257 257 250 248 245 246 252 254 260 257 184 188 204 210 214 216 219 222 227 233
204 207 209 210 211 220 221 216 212 215 220 228 233 236 238 236 239 249 250 254 261 262 253 258 260 252 244 242 254 260 255 243 260 254 224 217 200 207 213 215 219 223 229
203 204 206 209 213 217 223 221 218 216 217 224 227 233 236 239 265 269 277 269 261 258 252 252 259 258 253 251 260 268 272 265 252 252 254 235 212 217 205 209 210 215 223
202 202 209 213 218 218 160 200 230 222 218 222 232 238 227 213 219 228 258 278 284 271 276 273 267 270 267 262 267 272 279 276 269 247 261 258 249 246 237 217 168 195 219
194 202 208 211 211 193 171 191 222 228 223 228 236 245 252 213 221 233 221 225 237 244 256 271 281 284 280 270 269 265 268 277 282 282 268 267 260 259 251 165 158 189 213
199 206 210 212 205 182 170 193 221 226 230 234 236 237 247 249 252 261 255 248 249 237 233 244 265 275 281 285 266 267 270 260 257 247 248 267 264 266 259 219 167 184 204
198 205 202 206 203 177 157 185 218 226 224 233 239 236 242 243 242 260 255 255 261 259 228 229 259 271 286 273 266 265 260 261 265 252 231 266 271 274 266 246 186 187 204
190 203 191 191 190 191 168 183 222 229 227 234 233 228 225 259 268 260 258 260 264 270 275 245 236 237 240 230 221 244 262 268 275 272 233 254 269 273 269 251 243 218 215